434  
ASUS44 KLZK 181405  
RWRLZK  
 
WEATHER ROUNDUP FOR ARKANSAS  
NATIONAL WEATHER SERVICE LITTLE ROCK AR  
900 AM CDT THU APR 18 2019  
 
NOTE: "FAIR" INDICATES FEW OR NO CLOUDS BELOW 12,000 FEET WITH NO  
SIGNIFICANT WEATHER AND/OR S TO VISIBILITY
.  
 
ARZ001-003-010-029-181500-  
NORTHWEST ARKANSAS  
 
CITY SKY/WX TMP DP RH WIND PRES REMARKS
 
FAYETTEVILLE LGT RAIN 58 56 93 N6 29.73R  
FORT SMITH CLOUDY 63 60 90 W9 29.69R  
HARRISON CLOUDY 57 56 96 NW7 29.72R  
BENTONVILLE CLOUDY 57 55 93 N10G18 29.76R  
ROGERS CLOUDY 57 55 93 NW12 29.74S  
SILOAM SPGS CLOUDY 58 56 93 N16 29.75R  
HIGHFILL CLOUDY 57 53 86 N18 29.74S  
SPRINGDALE CLOUDY 57 57 100 N12 29.73S  

 
 
ARZ004-005-016-181500-  
NORTH CENTRAL ARKANSAS  
 
CITY SKY/WX TMP DP RH WIND PRES REMARKS
 
BATESVILLE RAIN 61 60 97 S3 29.76F  
FLIPPIN LGT RAIN 61 60 97 CALM 29.71R  
MTN HOME LGT RAIN 60 59 96 S5 29.69F  

 
 
ARZ040-041-181500-  
WEST CENTRAL ARKANSAS  
 
CITY SKY/WX TMP DP RH WIND PRES REMARKS
 
MENA CLOUDY 63 61 94 SW5 29.74R  
MOUNT IDA CLOUDY 61 58 90 VRB5 29.65F  

 
 
ARZ009-017-025-026-028-181500-  
NORTHEAST ARKANSAS  
 
CITY SKY/WX TMP DP RH WIND PRES REMARKS
 
JONESBORO LGT RAIN 62 62 100 S10 29.79R  
NEWPORT LGT RAIN 62 61 96 S6 29.77F  
WALNUT RIDGE RAIN 62 61 96 SW10 29.77S  
BLYTHEVILLE TSTM 61 59 93 W6 29.79R FOG  

 
 
ARZ022-023-033-042-044-181500-  
CENTRAL ARKANSAS  
 
CITY SKY/WX TMP DP RH WIND PRES REMARKS
 
LITTLE ROCK LGT RAIN 61 60 97 S3 29.77F FOG  
N LITTLE ROCK N/A 60 60 100 S6 29.79F  
JACKSONVILLE LGT RAIN 62 62 100 SE8 29.77S  
CONWAY PTSUNNY 63 61 94 SE17 29.73F FOG  
SEARCY LGT RAIN 62 62 100 S7 29.78F  
HOT SPRINGS RAIN 62 62 100 SE9 29.73F FOG  
RUSSELLVILLE CLOUDY 62 61 96 W9 29.71S  
CLINTON DRIZZLE 61 61 100 SE6 29.73F  

 
 
ARZ036-181500-  
EAST ARKANSAS  
 
CITY SKY/WX TMP DP RH WIND PRES REMARKS
 
WEST MEMPHIS HVY RAIN 62 32 32 VRB3 29.78R VSB 1  

 
 
ARZ050-053-066-070-073-181500-  
SOUTHWEST ARKANSAS  
 
CITY SKY/WX TMP DP RH WIND PRES REMARKS
 
ARKADELPHIA RAIN 61 61 100 VRB3 29.77F  
CAMDEN RAIN 61 59 94 CALM 29.78F  
TEXARKANA LGT RAIN 60 60 100 SE12 29.75F  
EL DORADO LGT RAIN 61 61 100 NE3 29.80S  
DE QUEEN CLOUDY 62 62 100 CALM 29.72R  

 
 
ARZ056-057-069-181500-  
SOUTHEAST ARKANSAS  
 
CITY SKY/WX TMP DP RH WIND PRES REMARKS
 
PINE BLUFF CLOUDY 61 61 100 E8 29.78F  
STUTTGART RAIN 62 61 96 S7 29.81S  
MONTICELLO RAIN 62 60 93 NE3 29.79F FOG  
 

 
 
 
 
CLICK HERE TO GO TO PREVIOUS BULLETINS.

The Nexlab AR Page Main Text Page